| time (UTC) | temp C | wind direction | speed KPH | gust KPH | rain 1hr cm | rain 24hr cm | rain mn cm | humidity % | barometer mb |
| 20260508151537 | 13 | 334 | 12.9 | 25.7 | 0.00 | 0.00 | 0.00 | 62 | 1020.9 |
| 20260508150031 | 12 | 349 | 9.7 | 22.5 | 0.00 | 0.00 | 0.00 | 62 | 1020.7 |
| 20260508144644 | 10 | 9 | 1.6 | 12.9 | 0.00 | 0.00 | 0.00 | 68 | 1020.6 |
| 20260508140105 | 8 | 133 | 4.8 | 9.7 | 0.00 | 0.00 | 0.00 | 69 | 1020.0 |
| 20260508134532 | 8 | 146 | 4.8 | 8.0 | 0.00 | 0.00 | 0.00 | 70 | 1020.0 |
| 20260508133035 | 7 | 168 | 3.2 | 9.7 | 0.00 | 0.00 | 0.00 | 73 | 1019.9 |
| 20260508131607 | 7 | 183 | 1.6 | 8.0 | 0.00 | 0.00 | 0.00 | 72 | 1019.7 |
| 20260508130036 | 7 | 138 | 3.2 | 8.0 | 0.00 | 0.00 | 0.00 | 69 | 1019.6 |
| 20260508124537 | 7 | 190 | 1.6 | 8.0 | 0.00 | 0.00 | 0.00 | 69 | 1019.7 |
| 20260508123137 | 6 | 147 | 4.8 | 12.9 | 0.00 | 0.00 | 0.00 | 71 | 1019.6 |
| 20260508121530 | 6 | 138 | 3.2 | 11.3 | 0.00 | 0.00 | 0.00 | 71 | 1019.4 |
| 20260508120037 | 6 | 163 | 4.8 | 11.3 | 0.00 | 0.00 | 0.00 | 69 | 1019.4 |
| 20260508114606 | 6 | 140 | 3.2 | 12.9 | 0.00 | 0.00 | 0.00 | 66 | 1019.4 |
| 20260508113107 | 6 | 167 | 4.8 | 11.3 | 0.00 | 0.00 | 0.00 | 63 | 1019.3 |
| 20260508111533 | 6 | 145 | 4.8 | 9.7 | 0.00 | 0.00 | 0.00 | 61 | 1019.3 |
| 20260508110031 | 6 | 151 | 6.4 | 12.9 | 0.00 | 0.00 | 0.00 | 60 | 1019.1 |
| 20260508104609 | 6 | 151 | 6.4 | 11.3 | 0.00 | 0.00 | 0.00 | 60 | 1019.2 |
| 20260508103030 | 6 | 145 | 8.0 | 11.3 | 0.00 | 0.00 | 0.00 | 61 | 1019.2 |
| 20260508101606 | 6 | 150 | 8.0 | 11.3 | 0.00 | 0.00 | 0.00 | 62 | 1019.2 |
| 20260508100033 | 6 | 140 | 6.4 | 12.9 | 0.00 | 0.00 | 0.00 | 62 | 1019.3 |
| 20260508094533 | 6 | 167 | 6.4 | 12.9 | 0.00 | 0.00 | 0.00 | 63 | 1019.2 |
| 20260508093029 | 6 | 156 | 6.4 | 11.3 | 0.00 | 0.00 | 0.00 | 62 | 1019.1 |
| 20260508091641 | 6 | 147 | 6.4 | 9.7 | 0.00 | 0.00 | 0.00 | 62 | 1019.2 |
| 20260508090031 | 6 | 155 | 6.4 | 11.3 | 0.00 | 0.00 | 0.00 | 61 | 1019.2 |
| 20260508084532 | 7 | 149 | 6.4 | 12.9 | 0.00 | 0.00 | 0.00 | 61 | 1019.2 |
| 20260508083031 | 7 | 148 | 8.0 | 11.3 | 0.00 | 0.00 | 0.00 | 60 | 1019.2 |
| 20260508081607 | 7 | 149 | 6.4 | 11.3 | 0.00 | 0.00 | 0.00 | 60 | 1019.3 |
| 20260508080033 | 7 | 144 | 4.8 | 9.7 | 0.00 | 0.00 | 0.00 | 60 | 1019.3 |
| 20260508074644 | 7 | 136 | 4.8 | 9.7 | 0.00 | 0.00 | 0.00 | 60 | 1019.3 |
| 20260508073034 | 7 | 144 | 6.4 | 9.7 | 0.00 | 0.00 | 0.00 | 60 | 1019.3 |
| 20260508071536 | 7 | 152 | 4.8 | 11.3 | 0.00 | 0.00 | 0.00 | 60 | 1019.4 |
| 20260508064606 | 7 | 152 | 6.4 | 11.3 | 0.00 | 0.00 | 0.00 | 60 | 1019.4 |
| 20260508063036 | 7 | 157 | 6.4 | 11.3 | 0.00 | 0.00 | 0.00 | 60 | 1019.4 |
| 20260508061534 | 7 | 149 | 6.4 | 9.7 | 0.00 | 0.00 | 0.00 | 59 | 1019.6 |
| 20260508051534 | 11 | 52 | 1.6 | 6.4 | 0.00 | 0.00 | 0.00 | 42 | 1019.7 |
| 20260508050035 | 12 | 360 | 3.2 | 11.3 | 0.00 | 0.00 | 0.00 | 39 | 1019.7 |
| 20260508044536 | 13 | 317 | 3.2 | 12.9 | 0.00 | 0.00 | 0.00 | 36 | 1019.7 |
| 20260508043035 | 12 | 48 | 6.4 | 14.5 | 0.00 | 0.00 | 0.00 | 37 | 1019.5 |
| 20260508041647 | 12 | 111 | 3.2 | 8.0 | 0.00 | 0.00 | 0.00 | 37 | 1019.4 |
| 20260508040032 | 13 | 74 | 3.2 | 8.0 | 0.00 | 0.00 | 0.00 | 37 | 1019.1 |
| 20260508034534 | 13 | 59 | 6.4 | 12.9 | 0.00 | 0.00 | 0.00 | 37 | 1018.9 |
| 20260508033030 | 14 | 15 | 8.0 | 25.7 | 0.00 | 0.00 | 0.00 | 37 | 1018.7 |
| 20260508031534 | 15 | 348 | 9.7 | 19.3 | 0.00 | 0.00 | 0.00 | 36 | 1018.7 |
| 20260508030037 | 16 | 334 | 9.7 | 29.0 | 0.00 | 0.00 | 0.00 | 35 | 1018.6 |
| 20260508024530 | 16 | 316 | 11.3 | 20.9 | 0.00 | 0.00 | 0.00 | 35 | 1018.5 |
| 20260508023035 | 17 | 328 | 14.5 | 33.8 | 0.00 | 0.00 | 0.00 | 35 | 1018.3 |
| 20260508020033 | 18 | 323 | 11.3 | 24.1 | 0.00 | 0.00 | 0.00 | 33 | 1018.3 |
| 20260508013033 | 21 | 306 | 8.0 | 17.7 | 0.00 | 0.00 | 0.00 | 28 | 1018.6 |
| 20260508011531 | 21 | 333 | 6.4 | 20.9 | 0.00 | 0.00 | 0.00 | 27 | 1018.8 |
| 20260508010150 | 21 | 296 | 8.0 | 20.9 | 0.00 | 0.00 | 0.00 | 27 | 1018.8 |
| 20260508003031 | 22 | 285 | 8.0 | 22.5 | 0.00 | 0.00 | 0.00 | 27 | 1018.7 |
| 20260508001529 | 22 | 292 | 11.3 | 25.7 | 0.00 | 0.00 | 0.00 | 25 | 1018.6 |
| 20260508000148 | 22 | 283 | 11.3 | 24.1 | 0.00 | 0.00 | 0.00 | 23 | 1018.6 |
| 20260507231535 | 22 | 287 | 11.3 | 30.6 | 0.00 | 0.00 | 0.00 | 24 | 1018.8 |
| 20260507230030 | 22 | 299 | 12.9 | 25.7 | 0.00 | 0.00 | 0.00 | 24 | 1018.7 |
| 20260507224535 | 22 | 294 | 11.3 | 25.7 | 0.00 | 0.00 | 0.00 | 24 | 1018.9 |
| 20260507223029 | 22 | 305 | 11.3 | 25.7 | 0.00 | 0.00 | 0.00 | 26 | 1019.0 |
| 20260507221649 | 21 | 299 | 11.3 | 24.1 | 0.00 | 0.00 | 0.00 | 26 | 1019.3 |
| 20260507220033 | 21 | 316 | 11.3 | 25.7 | 0.00 | 0.00 | 0.00 | 29 | 1019.4 |
| 20260507213037 | 20 | 336 | 16.1 | 29.0 | 0.00 | 0.00 | 0.00 | 31 | 1019.6 |
| 20260507204607 | 20 | 334 | 14.5 | 29.0 | 0.00 | 0.00 | 0.00 | 34 | 1019.8 |
| 20260507203036 | 20 | 331 | 11.3 | 24.1 | 0.00 | 0.00 | 0.00 | 33 | 1020.0 |
| 20260507200034 | 20 | 309 | 12.9 | 25.7 | 0.00 | 0.00 | 0.00 | 34 | 1020.2 |
| 20260507194604 | 20 | 311 | 12.9 | 24.1 | 0.00 | 0.00 | 0.00 | 33 | 1020.2 |
| 20260507193033 | 20 | 296 | 12.9 | 25.7 | 0.00 | 0.00 | 0.00 | 34 | 1020.3 |
| 20260507191604 | 20 | 305 | 9.7 | 22.5 | 0.00 | 0.00 | 0.00 | 34 | 1020.4 |
| 20260507184534 | 18 | 353 | 8.0 | 20.9 | 0.00 | 0.00 | 0.00 | 38 | 1020.8 |
| 20260507181537 | 18 | 346 | 8.0 | 16.1 | 0.00 | 0.00 | 0.00 | 40 | 1020.9 |
| 20260507180030 | 17 | 325 | 8.0 | 20.9 | 0.00 | 0.00 | 0.00 | 42 | 1021.1 |
| 20260507174536 | 17 | 329 | 8.0 | 19.3 | 0.00 | 0.00 | 0.00 | 45 | 1021.2 |
| 20260507171534 | 16 | 352 | 9.7 | 17.7 | 0.00 | 0.00 | 0.00 | 50 | 1021.4 |
| 20260507170032 | 16 | 17 | 8.0 | 17.7 | 0.00 | 0.00 | 0.00 | 51 | 1021.3 |
| 20260507164606 | 15 | 32 | 6.4 | 16.1 | 0.00 | 0.00 | 0.00 | 54 | 1021.4 |
| 20260507163143 | 15 | 11 | 9.7 | 17.7 | 0.00 | 0.00 | 0.00 | 55 | 1021.3 |
| 20260507161533 | 14 | 352 | 8.0 | 19.3 | 0.00 | 0.00 | 0.00 | 56 | 1021.3 |
| 20260507153034 | 13 | 336 | 6.4 | 16.1 | 0.00 | 0.00 | 0.00 | 60 | 1021.4 |